Location: Barczewo
(53.8287°N, 20.6923°E)
Time: 17:26:42
(UTC+01:00)

ISS - Visible Passes

Search period start: 16 January 2019 00:00
Search period end: 26 January 2019 00:00
Orbit: 404 x 407 km, 51.6° (Epoch: 17 January)

Date Brightness Start Highest point End Pass type
(mag) Time Alt. Az. Time Alt. Az. Time Alt. Az.
23 Jan -1.0 18:37:53 10° SSW 18:38:06 11° S 18:38:06 11° S visible
24 Jan -1.5 17:47:02 10° SSE 17:48:30 12° SE 17:48:30 12° SE visible
25 Jan -2.0 18:29:37 10° SW 18:31:29 24° S 18:31:29 24° S visible
